Terminal Aerodrome Forecast
Issued by NWS Tampa Bay Area, FL

Home | Current Version | Previous Version | Text Only | Print | Product List | Glossary On
Versions: 1 2 3 4 5 6 7 8 9 10 11 12 13 14 15 16 17 18 19 20 21 22 23 24 25
000
FTUS42 KTBW 241100
TAFTPA
TAF
KTPA 241136Z 2412/2512 VRB03KT P6SM FEW025 SCT050
     FM241600 23007KT P6SM VCTS SCT045CB SCT250
     FM250000 24005KT P6SM FEW035 SCT100 BKN250
     FM250400 00000KT P6SM FEW010 SCT250=

USA.gov is the U.S. government's official web portal to all federal, state and local government web resources and services.